Change the Weather History Date:

Saturday, February 9, 2013

  Actual Average (KBIV) Record (KBIV)
Temperature  
Mean Temperature 20 °F 27 °F  
Max Temperature 33 °F 34 °F 62 °F (1990)
Min Temperature 7 °F 21 °F -8 °F (1979)
Degree Days  
Heating Degree Days 45 38  
Month to date heating degree days 347  
Since 1 July heating degree days 3821  
Cooling Degree Days 0 0  
Month to date cooling degree days 0  
Year to date cooling degree days 0  
Moisture  
Dew Point 17 °F    
Average Humidity 79    
Maximum Humidity 94    
Minimum Humidity 59    
Precipitation  
Precipitation 0.00 in 0.05 in 0.71 in (2001)
Month to date precipitation 0.46  
Year to date precipitation 2.55  
Sea Level Pressure  
Sea Level Pressure 30.31 in    
Wind  
Wind Speed 3 mph (SE)    
Max Wind Speed 10 mph    
Max Gust Speed -    
Visibility 9 miles    
Events      
T = Trace of Precipitation, MM = Missing Value Source: NWS Daily Summary

Daily Weather History Graph

Daily Weather History Graph

Search for Another Location

Airport or City:

Trip Planner

Search our weather history database for the weather conditions in past years. The results will help you decide how hot, cold, wet, or windy it might be!

Date:

Astronomy

Feb. 09, 2013 Rise Set
Actual Time 7:49 AM EST 6:09 PM EST
Civil Twilight 7:19 AM EST 6:39 PM EST
Nautical Twilight 6:46 AM EST 7:12 PM EST
Astronomical Twilight 6:14 AM EST 7:45 PM EST
Moon 7:00 AM EST (2/9) 5:52 PM EST (2/9)
Length of Visible Light 11h 19m
Length of Day
10h 20m
Waning Crescent, 0% of the Moon is Illuminated
Feb 9
Waning Crescent
Feb 10
New
Feb 17
First Quarter
Feb 25
Full
Mar 4
Last Quarter

Hourly Weather History & Observations

Time (EST) Temp. Windchill Dew Point Humidity Pressure Visibility Wind Dir Wind Speed Gust Speed Precip Events Conditions
12:15 AM 17.1 °F - 15.4 °F 93% 30.37 in 10.0 mi Calm Calm - N/A   Overcast
12:35 AM 19.4 °F - 18.0 °F 94% 30.37 in 10.0 mi Calm Calm - N/A   Overcast
12:55 AM 18.7 °F - 17.2 °F 94% 30.37 in 10.0 mi Calm Calm - N/A   Overcast
1:15 AM 20.3 °F 13.8 °F 18.9 °F 94% 30.36 in 10.0 mi ENE 4.6 mph - N/A   Overcast
1:35 AM 20.3 °F 15.4 °F 18.5 °F 93% 30.36 in 10.0 mi ENE 3.5 mph - N/A   Scattered Clouds
1:55 AM 18.1 °F - 16.0 °F 91% 30.37 in 10.0 mi Calm Calm - N/A   Clear
2:15 AM 16.3 °F - 14.5 °F 93% 30.37 in 7.0 mi Calm Calm - N/A   Clear
2:35 AM 15.1 °F - 13.6 °F 94% 30.37 in 5.0 mi Calm Calm - N/A   Clear
2:55 AM 13.8 °F - 12.4 °F 94% 30.37 in 5.0 mi Calm Calm - N/A   Clear
3:15 AM 12.7 °F - 11.1 °F 93% 30.37 in 5.0 mi Calm Calm - N/A   Clear
3:35 AM 10.6 °F - 9.0 °F 93% 30.37 in 7.0 mi Calm Calm - N/A   Clear
3:55 AM 11.8 °F - 10.2 °F 93% 30.37 in 5.0 mi Calm Calm - N/A   Clear
4:15 AM 11.3 °F - 9.5 °F 92% 30.38 in 7.0 mi Calm Calm - N/A   Clear
4:35 AM 9.5 °F - 7.0 °F 90% 30.39 in 7.0 mi Calm Calm - N/A   Clear
4:55 AM 10.2 °F - 8.2 °F 92% 30.39 in 7.0 mi Calm Calm - N/A   Clear
5:14 AM 10.0 °F - 8.1 °F 92% 30.39 in 7.0 mi Calm Calm - N/A   Scattered Clouds
5:35 AM 9.7 °F - 7.9 °F 92% 30.38 in 7.0 mi Calm Calm - N/A   Clear
5:55 AM 8.4 °F - 6.4 °F 92% 30.37 in 7.0 mi Calm Calm - N/A   Clear
6:15 AM 7.2 °F - 4.3 °F 88% 30.37 in 7.0 mi Calm Calm - N/A   Clear
6:35 AM 8.2 °F 1.6 °F 6.1 °F 91% 30.37 in 7.0 mi ESE 3.5 mph - N/A   Clear
6:55 AM 8.2 °F - 6.1 °F 91% 30.38 in 7.0 mi Calm Calm - N/A   Clear
7:15 AM 7.0 °F - 4.5 °F 89% 30.39 in 7.0 mi Calm Calm - N/A   Clear
7:35 AM 8.6 °F - 6.4 °F 91% 30.40 in 1.0 mi Calm Calm - N/A   Mist
7:54 AM 7.2 °F - 4.5 °F 89% 30.39 in 7.0 mi Calm Calm - N/A   Clear
8:15 AM 7.9 °F - 5.7 °F 91% 30.40 in 7.0 mi Calm Calm - N/A   Clear
8:34 AM 12.7 °F 6.7 °F 11.1 °F 93% 30.39 in 7.0 mi ESE 3.5 mph - N/A   Clear
8:55 AM 14.7 °F - 12.9 °F 93% 30.40 in 10.0 mi Calm Calm - N/A   Clear
9:15 AM 15.8 °F 10.2 °F 14.0 °F 93% 30.40 in 10.0 mi SE 3.5 mph - N/A   Clear
9:35 AM 17.2 °F 7.8 °F 15.6 °F 93% 30.39 in 10.0 mi SE 6.9 mph - N/A   Clear
9:55 AM 18.5 °F 10.4 °F 16.9 °F 93% 30.39 in 10.0 mi SSE 5.8 mph - N/A   Clear
10:15 AM 20.1 °F 13.6 °F 18.3 °F 93% 30.39 in 10.0 mi SSE 4.6 mph - N/A   Clear
10:35 AM 21.6 °F 13.0 °F 18.3 °F 87% 30.38 in 10.0 mi SSE 6.9 mph - N/A   Clear
10:54 AM 23.4 °F 17.4 °F 18.3 °F 81% 30.39 in 10.0 mi SSE 4.6 mph - N/A   Clear
11:15 AM 25.0 °F 17.1 °F 18.5 °F 76% 30.38 in 10.0 mi South 6.9 mph - N/A   Clear
11:35 AM 26.4 °F 20.9 °F 18.5 °F 72% 30.38 in 10.0 mi SE 4.6 mph - N/A   Clear
11:55 AM 27.5 °F 21.1 °F 19.2 °F 71% 30.38 in 10.0 mi SSE 5.8 mph - N/A   Clear
12:15 PM 28.2 °F 20.2 °F 19.2 °F 69% 30.37 in 10.0 mi South 8.1 mph - N/A   Clear
12:35 PM 29.3 °F 23.2 °F 19.6 °F 67% 30.36 in 10.0 mi SSE 5.8 mph - N/A   Clear
12:54 PM 29.5 °F 21.8 °F 19.8 °F 67% 30.34 in 10.0 mi SSE 8.1 mph - N/A   Clear
1:15 PM 30.2 °F 21.9 °F 19.9 °F 66% 30.33 in 10.0 mi SSE 9.2 mph - N/A   Clear
1:34 PM 30.9 °F 24.3 °F 20.3 °F 65% 30.32 in 10.0 mi SSE 6.9 mph - N/A   Clear
1:55 PM 31.8 °F 23.3 °F 20.7 °F 63% 30.31 in 10.0 mi South 10.4 mph - N/A   Clear
2:14 PM 32.0 °F 25.6 °F 20.3 °F 62% 30.30 in 10.0 mi South 6.9 mph - N/A   Clear
2:35 PM 32.0 °F 23.6 °F 20.5 °F 63% 30.29 in 10.0 mi SSE 10.4 mph - N/A   Clear
2:55 PM 32.2 °F 25.8 °F 20.7 °F 63% 30.28 in 10.0 mi SE 6.9 mph - N/A   Clear
3:15 PM 32.5 °F 24.2 °F 20.5 °F 61% 30.27 in 10.0 mi SE 10.4 mph - N/A   Clear
3:35 PM 33.1 °F 24.9 °F 20.7 °F 60% 30.27 in 10.0 mi SSE 10.4 mph - N/A   Clear
3:54 PM 32.9 °F 24.7 °F 20.3 °F 60% 30.27 in 10.0 mi South 10.4 mph - N/A   Clear
4:15 PM 33.1 °F 24.9 °F 20.3 °F 59% 30.28 in 10.0 mi South 10.4 mph - N/A   Clear
4:35 PM 33.3 °F 25.7 °F 20.3 °F 59% 30.27 in 10.0 mi SSE 9.2 mph - N/A   Clear
4:55 PM 33.3 °F 25.7 °F 21.0 °F 61% 30.26 in 10.0 mi SSE 9.2 mph - N/A   Clear
5:15 PM 33.1 °F 26.1 °F 21.0 °F 61% 30.25 in 10.0 mi SSE 8.1 mph - N/A   Clear
5:34 PM 32.5 °F 26.2 °F 21.2 °F 63% 30.24 in 10.0 mi SE 6.9 mph - N/A   Clear
5:55 PM 31.6 °F 27.0 °F 21.4 °F 66% 30.24 in 10.0 mi ESE 4.6 mph - N/A   Clear
6:15 PM 30.9 °F 23.5 °F 21.2 °F 67% 30.23 in 10.0 mi SE 8.1 mph - N/A   Clear
6:35 PM 30.2 °F 24.3 °F 21.2 °F 69% 30.22 in 10.0 mi SE 5.8 mph - N/A   Clear
6:55 PM 30.2 °F 26.7 °F 21.0 °F 69% 30.22 in 10.0 mi SE 3.5 mph - N/A   Clear
7:14 PM 29.7 °F 23.7 °F 21.0 °F 70% 30.22 in 10.0 mi SE 5.8 mph - N/A   Clear
7:35 PM 29.1 °F 24.1 °F 20.7 °F 71% 30.22 in 10.0 mi SE 4.6 mph - N/A   Clear
7:54 PM 28.8 °F 23.7 °F 20.7 °F 72% 30.21 in 10.0 mi SE 4.6 mph - N/A   Clear
8:15 PM 28.4 °F 23.3 °F 20.7 °F 73% 30.21 in 10.0 mi SE 4.6 mph - N/A   Clear
8:35 PM 28.8 °F 20.9 °F 20.8 °F 72% 30.21 in 10.0 mi SE 8.1 mph - N/A   Clear
8:55 PM 28.8 °F 21.7 °F 21.2 °F 73% 30.20 in 10.0 mi SE 6.9 mph - N/A   Clear
9:15 PM 28.8 °F 21.7 °F 21.2 °F 73% 30.19 in 10.0 mi SE 6.9 mph - N/A   Clear
9:35 PM 28.4 °F 22.2 °F 21.2 °F 74% 30.19 in 10.0 mi ESE 5.8 mph - N/A   Clear
9:55 PM 27.3 °F 22.0 °F 21.0 °F 77% 30.19 in 10.0 mi SE 4.6 mph - N/A   Clear
10:14 PM 28.4 °F 21.2 °F 21.2 °F 74% 30.19 in 10.0 mi SE 6.9 mph - N/A   Clear
10:35 PM 28.9 °F 21.1 °F 21.4 °F 73% 30.19 in 10.0 mi SSE 8.1 mph - N/A   Clear
10:55 PM 29.1 °F 21.3 °F 21.4 °F 73% 30.18 in 10.0 mi SSE 8.1 mph - N/A   Clear
11:15 PM 28.6 °F 21.5 °F 21.2 °F 74% 30.17 in 10.0 mi SE 6.9 mph - N/A   Clear
11:34 PM 28.4 °F 20.4 °F 21.2 °F 74% 30.15 in 10.0 mi SSE 8.1 mph - N/A   Clear
11:55 PM 28.9 °F 21.9 °F 21.2 °F 73% 30.15 in 10.0 mi SSE 6.9 mph - N/A   Clear